EW7948 Weather Reports


time (UTC)temp
F
wind
direction
speed
knots
gust
knots
rain 1hr
in
rain 24hr
in
rain mn
in
humidity
%
barometer
mb
20260508130041 47 88 3.5 6.1 0.00 0.00 0.00 49 1008.4
20260508124540 46 78 0.0 0.0 0.00 0.00 0.00 48 1008.5
20260508123038 46 78 0.0 1.7 0.00 0.00 0.00 49 1008.3
20260508121540 46 78 0.0 0.9 0.00 0.00 0.00 47 1008.2
20260508120039 47 78 0.0 0.9 0.00 0.00 0.00 48 1007.8
20260508114530 47 78 0.9 2.6 0.00 0.00 0.00 53 1007.6
20260508113030 48 78 0.0 0.0 0.00 0.00 0.00 54 1007.6
20260508111530 48 78 0.0 0.0 0.00 0.00 0.00 52 1007.6
20260508110024 48 78 0.0 0.0 0.00 0.00 0.00 49 1007.7
20260508104523 49 78 0.0 0.0 0.00 0.00 0.00 45 1007.8
20260508103025 49 78 0.9 2.6 0.00 0.00 0.00 46 1007.8
20260508101519 49 78 0.0 2.6 0.00 0.00 0.00 44 1007.7
20260508100016 49 78 0.0 1.7 0.00 0.00 0.00 47 1007.7
20260508094514 49 78 0.0 1.7 0.00 0.00 0.00 45 1007.6
20260508093011 50 80 2.6 5.2 0.00 0.00 0.00 46 1007.6
20260508091509 51 85 0.9 1.7 0.00 0.00 0.00 43 1007.3
20260508090008 51 85 0.0 1.7 0.00 0.00 0.00 44 1007.3
20260508084506 51 85 0.0 0.9 0.00 0.00 0.00 36 1007.3
20260508083004 52 85 0.0 1.7 0.00 0.00 0.00 39 1007.5
20260508081504 52 85 0.9 2.6 0.00 0.00 0.00 38 1007.5
20260508080104 53 85 0.0 0.0 0.00 0.00 0.00 48 1007.3
20260508074605 53 85 1.7 3.5 0.00 0.00 0.00 48 1007.4
20260508073057 54 86 0.0 0.9 0.00 0.00 0.00 50 1007.3
20260508071553 55 86 0.0 1.7 0.00 0.00 0.00 46 1007.6
20260508070051 55 86 1.7 2.6 0.00 0.00 0.00 41 1007.5
20260508064551 55 86 0.0 3.5 0.00 0.00 0.00 43 1007.6
20260508063047 56 87 1.7 2.6 0.00 0.00 0.00 40 1007.3
20260508061542 57 87 0.0 0.0 0.00 0.00 0.00 34 1007.4
20260508060038 58 87 1.7 2.6 0.00 0.00 0.00 29 1007.4
20260508054543 59 87 0.0 1.7 0.00 0.00 0.00 32 1007.2
20260508053038 60 87 0.0 0.0 0.00 0.00 0.00 43 1007.3
20260508051527 62 86 0.0 1.7 0.00 0.00 0.00 30 1007.3
20260508050014 63 86 0.0 0.0 0.00 0.00 0.00 29 1007.5
20260508044514 63 86 0.0 0.0 0.00 0.00 0.00 24 1007.4
20260508043020 64 86 0.0 0.0 0.00 0.00 0.00 27 1007.2
20260508041516 65 86 0.0 3.5 0.00 0.00 0.00 29 1007.4
20260508040013 66 88 0.0 1.7 0.00 0.00 0.00 25 1007.3
20260508034511 67 88 2.6 5.2 0.00 0.00 0.00 24 1007.2
20260508033012 68 89 0.0 3.5 0.00 0.00 0.00 25 1007.0
20260508031513 69 90 1.7 3.5 0.00 0.00 0.00 24 1006.8
20260508030010 70 90 0.0 5.2 0.00 0.00 0.00 27 1006.9
20260508024510 72 90 0.0 0.0 0.00 0.00 0.00 27 1006.9
20260508023010 74 90 0.0 2.6 0.00 0.00 0.00 21 1006.7
20260508021508 74 90 1.7 3.5 0.00 0.00 0.00 17 1006.7
20260508020011 75 90 0.9 3.5 0.00 0.00 0.00 17 1006.8
20260508014510 76 90 2.6 5.2 0.00 0.00 0.00 17 1006.7
20260508013010 76 96 0.0 3.5 0.00 0.00 0.00 16 1006.7
20260508011508 77 113 0.9 2.6 0.00 0.00 0.00 16 1006.9
20260508010007 78 112 0.9 5.2 0.00 0.00 0.00 15 1006.9
20260508004508 78 114 1.7 5.2 0.00 0.00 0.00 15 1007.0
20260508003002 78 63 0.9 4.3 0.00 0.00 0.00 16 1007.1
20260508001501 79 84 0.9 7.0 0.00 0.00 0.00 15 1007.3
20260508000100 80 146 0.9 6.1 0.00 0.00 0.00 15 1007.5
20260507234558 80 181 3.5 6.1 0.00 0.00 0.00 15 1007.7
20260507233055 80 144 2.6 7.0 0.00 0.00 0.00 15 1007.8
20260507231552 80 234 2.6 6.1 0.00 0.00 0.00 15 1008.0
20260507230048 79 188 2.6 7.0 0.00 0.00 0.00 15 1008.4
20260507224548 80 221 4.3 8.7 0.00 0.00 0.00 15 1008.7
20260507223048 79 173 4.3 10.4 0.00 0.00 0.00 15 1008.9
20260507221542 78 173 2.6 8.7 0.00 0.00 0.00 17 1009.3
20260507220039 79 226 1.7 7.8 0.00 0.00 0.00 14 1009.8
20260507214535 78 137 1.7 7.0 0.00 0.00 0.00 15 1010.2
20260507213040 77 161 1.7 7.8 0.00 0.00 0.00 15 1010.6
20260507211530 76 103 2.6 8.7 0.00 0.00 0.00 15 1011.0
20260507210029 76 126 4.3 7.8 0.00 0.00 0.00 16 1011.4
20260507204523 75 295 2.6 7.0 0.00 0.00 0.00 17 1011.9
20260507203020 73 105 1.7 7.8 0.00 0.00 0.00 16 1012.2
20260507201518 74 140 4.3 7.8 0.00 0.00 0.00 16 1012.5
20260507200054 71 162 2.6 8.7 0.00 0.00 0.00 18 1012.8
20260507194547 72 67 2.6 7.8 0.00 0.00 0.00 16 1013.1
20260507193051 72 101 4.3 8.7 0.00 0.00 0.00 16 1013.5
20260507191542 72 205 0.9 7.8 0.00 0.00 0.00 16 1013.8
20260507190039 71 140 0.9 7.0 0.00 0.00 0.00 17 1014.3
20260507184511 69 280 0.9 6.1 0.00 0.00 0.00 17 1014.6
20260507183007 70 223 3.5 7.0 0.00 0.00 0.00 18 1014.9
20260507181517 67 348 1.7 5.2 0.00 0.00 0.00 19 1015.3
20260507180022 67 125 0.9 6.1 0.00 0.00 0.00 20 1015.4
20260507174528 66 176 0.9 4.3 0.00 0.00 0.00 21 1015.7
20260507173013 65 117 1.7 6.1 0.00 0.00 0.00 21 1016.1
20260507171501 63 5 1.7 4.3 0.00 0.00 0.00 22 1016.4
20260507170101 63 5 2.6 5.2 0.00 0.00 0.00 23 1016.7
20260507164558 61 24 1.7 4.3 0.00 0.00 0.00 24 1017.1
20260507163101 60 19 2.6 4.3 0.00 0.00 0.00 27 1017.3
20260507161552 59 27 0.9 4.3 0.00 0.00 0.00 28 1017.5
20260507160050 58 49 2.6 4.3 0.00 0.00 0.00 29 1017.6
20260507154545 56 57 1.7 3.5 0.00 0.00 0.00 30 1017.8
20260507153041 55 63 0.9 3.5 0.00 0.00 0.00 33 1017.9
20260507151539 54 65 0.0 2.6 0.00 0.00 0.00 35 1018.0
20260507150036 52 64 0.9 3.5 0.00 0.00 0.00 36 1018.3
20260507143009 51 82 0.0 2.6 0.00 0.00 0.00 35 1018.2
20260507141515 49 82 0.0 0.0 0.00 0.00 0.00 38 1018.3
20260507140026 47 82 0.0 0.0 0.00 0.00 0.00 44 1018.3
20260507134503 44 82 0.0 0.0 0.00 0.00 0.00 46 1018.3
20260507133045 43 82 0.9 3.5 0.00 0.00 0.00 49 1018.1
20260507131606 42 82 1.7 3.5 0.00 0.00 0.00 48 1018.1